TimeEST,TemperatureF,Dew PointF,Humidity,Sea Level PressureIn,VisibilityMPH,Wind Direction,Wind SpeedMPH,Gust SpeedMPH,PrecipitationIn,Events,Conditions,WindDirDegrees,DateUTC
12:15 AM,35.6,21.2,56,30.06,10.0,South,5.8,-,N/A,,Clear,190,2014-02-22 05:15:00
12:35 AM,35.6,21.2,56,30.07,10.0,South,4.6,-,N/A,,Clear,190,2014-02-22 05:35:00
12:55 AM,33.8,21.2,60,30.07,10.0,SSW,5.8,-,N/A,,Clear,200,2014-02-22 05:55:00
1:15 AM,33.8,21.2,60,30.07,10.0,SSW,9.2,-,N/A,,Clear,200,2014-02-22 06:15:00
1:35 AM,33.8,21.2,60,30.07,10.0,SSW,11.5,-,N/A,,Clear,210,2014-02-22 06:35:00
1:55 AM,35.6,21.2,56,30.07,10.0,SSW,11.5,-,N/A,,Clear,200,2014-02-22 06:55:00
2:15 AM,35.6,21.2,56,30.07,10.0,SSW,10.4,-,N/A,,Clear,210,2014-02-22 07:15:00
2:35 AM,35.6,21.2,56,30.07,10.0,SSW,11.5,-,N/A,,Clear,210,2014-02-22 07:35:00
2:55 AM,35.6,21.2,56,30.06,10.0,SSW,10.4,-,N/A,,Clear,210,2014-02-22 07:55:00
3:15 AM,35.6,21.2,56,30.06,10.0,SSW,11.5,-,N/A,,Clear,210,2014-02-22 08:15:00
3:35 AM,35.6,21.2,56,30.05,10.0,SSW,12.7,-,N/A,,Clear,210,2014-02-22 08:35:00
3:55 AM,35.6,19.4,52,30.05,10.0,SSW,11.5,-,N/A,,Clear,210,2014-02-22 08:55:00
4:15 AM,35.6,21.2,56,30.05,10.0,SSW,10.4,-,N/A,,Clear,210,2014-02-22 09:15:00
4:35 AM,35.6,21.2,56,30.05,10.0,SW,8.1,-,N/A,,Clear,220,2014-02-22 09:35:00
4:55 AM,35.6,21.2,56,30.06,10.0,SW,9.2,-,N/A,,Clear,220,2014-02-22 09:55:00
5:15 AM,37.4,21.2,52,30.06,10.0,SW,12.7,17.3,N/A,,Clear,230,2014-02-22 10:15:00
5:35 AM,41.0,19.4,42,30.07,10.0,WSW,12.7,19.6,N/A,,Clear,250,2014-02-22 10:35:00
5:55 AM,41.0,19.4,42,30.07,10.0,SW,11.5,17.3,N/A,,Clear,230,2014-02-22 10:55:00
6:15 AM,41.0,19.4,42,30.07,10.0,SW,11.5,-,N/A,,Clear,230,2014-02-22 11:15:00
6:35 AM,35.6,21.2,56,30.08,10.0,SSW,8.1,-,N/A,,Clear,200,2014-02-22 11:35:00
6:55 AM,35.6,21.2,56,30.08,10.0,SSW,9.2,-,N/A,,Clear,200,2014-02-22 11:55:00
7:15 AM,35.6,21.2,56,30.09,10.0,SSW,9.2,-,N/A,,Clear,200,2014-02-22 12:15:00
7:35 AM,35.6,21.2,56,30.10,10.0,SSW,9.2,-,N/A,,Clear,200,2014-02-22 12:35:00
7:55 AM,35.6,21.2,56,30.11,10.0,SSW,5.8,-,N/A,,Clear,210,2014-02-22 12:55:00
8:15 AM,37.4,21.2,52,30.12,10.0,SSW,9.2,-,N/A,,Clear,200,2014-02-22 13:15:00
8:35 AM,37.4,21.2,52,30.13,10.0,SSW,9.2,-,N/A,,Clear,210,2014-02-22 13:35:00
8:55 AM,41.0,23.0,49,30.13,10.0,SSW,8.1,-,N/A,,Clear,210,2014-02-22 13:55:00
9:15 AM,42.8,23.0,46,30.14,10.0,SSW,6.9,-,N/A,,Clear,200,2014-02-22 14:15:00
9:35 AM,42.8,23.0,46,30.14,10.0,SSW,8.1,-,N/A,,Clear,200,2014-02-22 14:35:00
9:55 AM,46.4,26.6,46,30.14,10.0,SSW,5.8,-,N/A,,Clear,200,2014-02-22 14:55:00
10:15 AM,48.2,26.6,43,30.14,10.0,SSW,8.1,-,N/A,,Clear,210,2014-02-22 15:15:00
10:35 AM,51.8,26.6,38,30.13,10.0,WSW,10.4,-,N/A,,Clear,250,2014-02-22 15:35:00
10:55 AM,53.6,23.0,30,30.12,10.0,WSW,10.4,16.1,N/A,,Clear,240,2014-02-22 15:55:00
11:15 AM,55.4,24.8,31,30.12,10.0,WSW,9.2,-,N/A,,Clear,250,2014-02-22 16:15:00
11:35 AM,55.4,23.0,29,30.12,10.0,West,10.4,20.7,N/A,,Clear,280,2014-02-22 16:35:00
11:55 AM,55.4,23.0,29,30.11,10.0,West,8.1,16.1,N/A,,Clear,260,2014-02-22 16:55:00
12:15 PM,55.4,21.2,26,30.10,10.0,West,5.8,-,N/A,,Clear,270,2014-02-22 17:15:00
12:35 PM,57.2,23.0,27,30.10,10.0,SSW,6.9,-,N/A,,Clear,210,2014-02-22 17:35:00
12:55 PM,59.0,24.8,27,30.09,10.0,SW,9.2,-,N/A,,Clear,220,2014-02-22 17:55:00
1:15 PM,59.0,23.0,25,30.07,10.0,WSW,11.5,18.4,N/A,,Clear,240,2014-02-22 18:15:00
1:35 PM,60.8,26.6,27,30.06,10.0,WSW,6.9,16.1,N/A,,Clear,250,2014-02-22 18:35:00
1:55 PM,60.8,23.0,23,30.05,10.0,SSW,10.4,-,N/A,,Clear,210,2014-02-22 18:55:00
2:15 PM,60.8,23.0,23,30.03,10.0,SW,11.5,18.4,N/A,,Clear,230,2014-02-22 19:15:00
2:35 PM,60.8,23.0,23,30.02,10.0,SW,13.8,19.6,N/A,,Clear,220,2014-02-22 19:35:00
2:55 PM,60.8,21.2,22,30.02,10.0,SW,11.5,-,N/A,,Clear,220,2014-02-22 19:55:00
3:15 PM,60.8,23.0,23,30.01,10.0,SW,12.7,18.4,N/A,,Clear,220,2014-02-22 20:15:00
3:40 PM,60.8,23.0,23,30.01,10.0,SW,10.4,-,N/A,,Clear,220,2014-02-22 20:40:00
3:55 PM,60.8,23.0,23,30.01,10.0,SSW,10.4,16.1,N/A,,Clear,210,2014-02-22 20:55:00
4:15 PM,60.8,26.6,27,30.00,10.0,SW,11.5,-,N/A,,Clear,220,2014-02-22 21:15:00
4:35 PM,60.8,24.8,25,29.99,10.0,SSW,11.5,-,N/A,,Clear,210,2014-02-22 21:35:00
4:55 PM,60.8,24.8,25,29.99,10.0,SW,10.4,17.3,N/A,,Clear,220,2014-02-22 21:55:00
5:15 PM,60.8,23.0,23,29.98,10.0,SW,9.2,-,N/A,,Clear,220,2014-02-22 22:15:00
5:35 PM,59.0,24.8,27,29.98,10.0,SSW,6.9,-,N/A,,Clear,200,2014-02-22 22:35:00
5:55 PM,57.2,24.8,29,29.97,10.0,SSW,5.8,-,N/A,,Clear,200,2014-02-22 22:55:00
6:15 PM,53.6,23.0,30,29.97,10.0,SSW,3.5,-,N/A,,Clear,200,2014-02-22 23:15:00
6:35 PM,53.6,23.0,30,29.97,10.0,SW,3.5,-,N/A,,Clear,230,2014-02-22 23:35:00
6:55 PM,51.8,24.8,35,29.97,10.0,SSW,3.5,-,N/A,,Clear,200,2014-02-22 23:55:00
7:15 PM,46.4,26.6,46,29.97,10.0,Calm,Calm,-,N/A,,Clear,0,2014-02-23 00:15:00
7:35 PM,44.6,28.4,53,29.97,10.0,Calm,Calm,-,N/A,,Clear,0,2014-02-23 00:35:00
7:55 PM,44.6,26.6,49,29.96,10.0,Calm,Calm,-,N/A,,Clear,0,2014-02-23 00:55:00
8:20 PM,44.6,26.6,49,29.97,10.0,Calm,Calm,-,N/A,,Clear,0,2014-02-23 01:20:00
8:35 PM,42.8,26.6,53,29.97,10.0,Calm,Calm,-,N/A,,Clear,0,2014-02-23 01:35:00
8:55 PM,41.0,28.4,61,29.97,10.0,Calm,Calm,-,N/A,,Clear,0,2014-02-23 01:55:00
9:15 PM,41.0,28.4,61,29.98,10.0,Calm,Calm,-,N/A,,Clear,0,2014-02-23 02:15:00
9:35 PM,41.0,28.4,61,29.99,10.0,Calm,Calm,-,N/A,,Clear,0,2014-02-23 02:35:00
9:55 PM,39.2,30.2,70,29.99,10.0,Calm,Calm,-,N/A,,Clear,0,2014-02-23 02:55:00
10:15 PM,37.4,30.2,75,29.99,10.0,Calm,Calm,-,N/A,,Clear,0,2014-02-23 03:15:00
10:35 PM,39.2,30.2,70,29.99,10.0,South,3.5,-,N/A,,Clear,190,2014-02-23 03:35:00
10:55 PM,39.2,30.2,70,29.99,10.0,Calm,Calm,-,N/A,,Clear,0,2014-02-23 03:55:00
11:15 PM,37.4,32.0,81,29.99,10.0,South,4.6,-,N/A,,Clear,190,2014-02-23 04:15:00
11:35 PM,39.2,30.2,70,29.99,10.0,South,3.5,-,N/A,,Clear,190,2014-02-23 04:35:00
11:55 PM,44.6,26.6,49,29.98,10.0,SSW,6.9,-,N/A,,Clear,200,2014-02-23 04:55:00